TimePST,TemperatureF,Dew PointF,Humidity,Sea Level PressureIn,VisibilityMPH,Wind Direction,Wind SpeedMPH,Gust SpeedMPH,PrecipitationIn,Events,Conditions,WindDirDegrees,DateUTC
12:53 AM,48.0,45.0,89,30.12,8.0,South,6.9,-,0.08,Rain,Light Rain,180,2013-01-06 08:53:00
2:53 AM,46.0,44.1,93,30.14,10.0,SSE,8.1,-,0.01,,Partly Cloudy,150,2013-01-06 10:53:00
3:53 AM,45.0,42.1,90,30.14,10.0,SE,6.9,-,N/A,,Clear,140,2013-01-06 11:53:00
4:53 AM,46.0,43.0,89,30.14,10.0,SE,10.4,-,N/A,,Scattered Clouds,140,2013-01-06 12:53:00
5:53 AM,46.0,43.0,89,30.14,10.0,SSE,10.4,-,N/A,,Overcast,150,2013-01-06 13:53:00
6:53 AM,46.0,43.0,89,30.14,10.0,SSE,10.4,-,N/A,,Overcast,150,2013-01-06 14:53:00
7:53 AM,46.0,43.0,89,30.14,10.0,SSE,6.9,-,N/A,,Overcast,150,2013-01-06 15:53:00
8:53 AM,48.0,43.0,83,30.14,10.0,SSE,9.2,-,N/A,,Scattered Clouds,150,2013-01-06 16:53:00
9:53 AM,50.0,44.1,80,30.18,10.0,SSE,10.4,-,N/A,,Overcast,150,2013-01-06 17:53:00
10:53 AM,51.1,44.1,77,30.16,10.0,SE,6.9,-,N/A,,Mostly Cloudy,140,2013-01-06 18:53:00
11:32 AM,51.8,42.8,71,30.13,10.0,SSE,6.9,-,N/A,,Overcast,150,2013-01-06 19:32:00
11:53 AM,50.0,43.0,77,30.13,10.0,ESE,6.9,-,N/A,,Overcast,120,2013-01-06 19:53:00
12:53 PM,50.0,43.0,77,30.12,10.0,East,3.5,-,N/A,,Overcast,90,2013-01-06 20:53:00
1:42 PM,50.0,44.6,82,30.10,10.0,Calm,Calm,-,0.00,,Overcast,0,2013-01-06 21:42:00
1:53 PM,51.1,43.0,74,30.11,10.0,Calm,Calm,-,0.00,,Overcast,0,2013-01-06 21:53:00
2:53 PM,51.1,43.0,74,30.11,10.0,NW,3.5,-,N/A,,Overcast,310,2013-01-06 22:53:00
3:53 PM,50.0,44.1,80,30.12,10.0,WNW,8.1,-,N/A,,Overcast,300,2013-01-06 23:53:00
4:53 PM,48.0,43.0,83,30.11,10.0,NNW,8.1,-,N/A,,Overcast,330,2013-01-07 00:53:00
5:53 PM,44.1,42.1,93,30.12,8.0,NW,6.9,-,N/A,,Clear,320,2013-01-07 01:53:00
6:23 PM,46.4,42.8,87,30.12,10.0,NNW,8.1,-,N/A,,Mostly Cloudy,330,2013-01-07 02:23:00
7:42 PM,44.6,42.8,93,30.12,10.0,WNW,10.4,-,N/A,,Partly Cloudy,300,2013-01-07 03:42:00
7:53 PM,45.0,42.1,90,30.14,10.0,WNW,11.5,-,N/A,,Partly Cloudy,300,2013-01-07 03:53:00
8:53 PM,43.0,41.0,93,30.16,8.0,NW,10.4,-,N/A,,Partly Cloudy,320,2013-01-07 04:53:00
9:53 PM,42.1,41.0,96,30.18,6.0,NW,8.1,-,N/A,,Mostly Cloudy,320,2013-01-07 05:53:00
10:53 PM,44.1,42.1,93,30.19,6.0,NNW,6.9,-,N/A,,Overcast,330,2013-01-07 06:53:00
11:01 PM,44.6,42.8,93,30.18,6.0,NW,6.9,-,N/A,,Overcast,310,2013-01-07 07:01:00
11:35 PM,44.6,42.8,93,30.17,5.0,NNW,3.5,-,N/A,,Overcast,340,2013-01-07 07:35:00
11:48 PM,44.6,42.8,93,30.16,5.0,North,3.5,-,N/A,,Overcast,350,2013-01-07 07:48:00
11:53 PM,44.1,42.1,93,30.17,5.0,NNW,4.6,-,N/A,,Overcast,340,2013-01-07 07:53:00